Location: ??????????
(54.8537°N, 38.8755°E)
Time: 02:23:39
(UTC+00:00)

Transit 4A - Pass Details

Date: 18 September 2024
Orbit: 865 x 977 km, 66.8° (Epoch: 09 October)

Event Time Altitude Azimuth Distance (km) Brightness Sun altitude
Exits shadow 00:07:02 44° 181° (S) 1,225 8.2 -23.7°
Maximum altitude 00:08:46 62° 124° (SE) 1,010 8.1 -23.5°
Drops below altitude 10° 00:14:44 10° 46° (NE) 2,620 11.4 -22.9°
Sets 00:17:19 0° 43° (NE) 3,583 12.4 -22.6°
